Regional Weather Roundup
Issued by NWS

Home | Current Version | Previous Version | Text Only | Print | Product List | Glossary On
Versions: 1 2 3 4 5 6 7 8 9 10 11 12 13 14 15 16 17 18 19 20 21 22 23 24 25 26 27 28 29 30 31 32 33 34 35 36 37 38 39 40 41 42 43 44 45 46 47 48 49 50
000
ASUS43 KDTX 230610
RWRMI
MICHIGAN HOURLY REGIONAL WEATHER ROUNDUP
NATIONAL WEATHER SERVICE DETROIT/PONTIAC MI
200 AM EDT WED JUL 23 2014

NOTE: "FAIR" INDICATES FEW OR NO CLOUDS BELOW 12,000 FEET WITH NO
SIGNIFICANT WEATHER AND/OR OBSTRUCTION TO VISIBILITY.

MIZ047>049-052>055-059>063-066>070-074>076-081>083-230700-
SOUTHEAST LOWER MICHIGAN

CITY           SKY/WX    TMP DP  RH WIND       PRES   REMARKS
ADRIAN         CLOUDY    77  68  73 W7        29.94F
6HR MIN TEMP:  76; 6HR MAX TEMP:  85; 6HR PCP: TRACE;

ALMA           CLOUDY    70  64  80 N7        29.98R
6HR MIN TEMP:  70; 6HR MAX TEMP:  82;

ANN ARBOR      CLOUDY    76  67  73 SW5       29.94F
BAD AXE        CLOUDY    71  69  92 NW5       29.92R
6HR MIN TEMP:  71; 6HR MAX TEMP:  83;

DETROIT CITY   CLOUDY    80  68  66 SW6       29.92F
6HR MIN TEMP:  80; 6HR MAX TEMP:  89; 6HR PCP:  0.05;

DETROIT        CLOUDY    79  67  66 SW8       29.93F
6HR MIN TEMP:  78; 6HR MAX TEMP:  87;

FLINT          CLOUDY    80  68  66 W9        29.93S
6HR MIN TEMP:  79; 6HR MAX TEMP:  85;

GROSSE ILE     RAIN      79  70  73 SW6       29.92F
HILLSDALE      CLOUDY    78  72  81 W12       29.99F
6HR MIN TEMP:  78; 6HR MAX TEMP:  83;

HOWELL         CLOUDY    76  68  75 W8        29.94F

CITY           SKY/WX    TMP DP  RH WIND       PRES   REMARKS
JACKSON        CLOUDY    77  69  76 W6        29.98R
6HR MIN TEMP:  77; 6HR MAX TEMP:  83;

LAMBERTVILLE   HVY RAIN  75  68  78 SW12G17   29.95F
LANSING        LGT RAIN  73  63  70 W10       29.98R
6HR MIN TEMP:  73; 6HR MAX TEMP:  83; 6HR PCP: TRACE;

LAPEER         NOT AVBL
MASON          CLOUDY    76  64  65 W13G20    29.96S
MONROE         HVY RAIN  75  70  83 W12G23    29.94F
MT. CLEMENS    CLOUDY    77  72  83 S5        29.90F
6HR MIN TEMP:  77; 6HR MAX TEMP:  87; 6HR PCP:  0.03;

PONTIAC        CLOUDY    79  67  66 W9        29.92F
6HR MIN TEMP:  79; 6HR MAX TEMP:  85; 6HR PCP: TRACE;

PORT HOPE        N/A     70  66  87 NW3       29.90F
6HR MIN TEMP:  70; 6HR MAX TEMP:  85; 6HR PCP:  0.03;

PORT HURON     CLOUDY    77  68  73 CALM      29.90F
TRI CITIES     CLOUDY    74  68  81 N12       29.95S
6HR MIN TEMP:  74; 6HR MAX TEMP:  85; 6HR PCP: TRACE;

YPSILANTI      LGT RAIN  80  68  66 SW7       29.94F
6HR MIN TEMP:  80; 6HR MAX TEMP:  90; 6HR PCP: TRACE;

$$
MIZ043>046-050>051-056>058-064>065-071>073-077>080-230700-
SOUTHWEST LOWER MICHIGAN

CITY           SKY/WX    TMP DP  RH WIND       PRES   REMARKS
BATTLE CREEK   LGT RAIN  73  61  65 VRB7G17   29.99S
6HR MIN TEMP:  73; 6HR MAX TEMP:  84; 6HR PCP: TRACE;

BENTON HARBOR  LGT RAIN  69  67  93 W8        29.99R
6HR MIN TEMP:  69; 6HR MAX TEMP:  83; 6HR PCP:  0.20;

BIG RAPIDS     CLOUDY    63  56  77 N10G22    30.04R
6HR MIN TEMP:  63; 6HR MAX TEMP:  80;

COLDWATER      CLOUDY    76  62  60 W9G20     29.98F
6HR MIN TEMP:  76; 6HR MAX TEMP:  84;

HOLLAND        CLOUDY    71  68  90 CALM      30.00R
6HR MIN TEMP:  68; 6HR MAX TEMP:  84; 6HR PCP:  0.76;

GRAND RAPIDS   CLOUDY    70  65  84 W8        29.99R
6HR MIN TEMP:  70; 6HR MAX TEMP:  85; 6HR PCP:  0.02;

KALAMAZOO      CLOUDY    69  64  84 CALM      29.97F
6HR MIN TEMP:  69; 6HR MAX TEMP:  84; 6HR PCP:  0.04;

MARSHALL       CLOUDY    75  60  58 NW10G22   29.98R
MUSKEGON       CLOUDY    69  64  84 N13       30.02R
6HR MIN TEMP:  69; 6HR MAX TEMP:  82; 6HR PCP:  1.21;

$$
MIZ016>042-230700-
NORTHERN LOWER MICHIGAN

CITY           SKY/WX    TMP DP  RH WIND       PRES   REMARKS
ALPENA         CLOUDY    63  58  83 NW14G22   29.95S
6HR MIN TEMP:  63; 6HR MAX TEMP:  83; 6HR PCP:  0.40;

BEAVER ISLAND  MOCLDY    60  56  88 N8        30.05R
6HR MIN TEMP:  60; 6HR MAX TEMP:  69;

BELLAIRE       CLOUDY    63  56  80 N8G16     30.03R
6HR MIN TEMP:  62; 6HR MAX TEMP:  77;

CADILLAC       CLOUDY    59  57  92 N10G18    30.05R
CHARLEVOIX     PTCLDY    62  58  87 N9G18     30.06S
6HR MIN TEMP:  62; 6HR MAX TEMP:  71;

FRANKFORT      CLEAR     62  55  77 N9        30.06R
GAYLORD        CLOUDY    60  54  80 N12G20    30.02R
6HR MIN TEMP:  59; 6HR MAX TEMP:  76; 6HR PCP:  0.02;

GRAYLING       CLOUDY    60  58  94 NW8       30.03R
HARBOR SPRINGS CLOUDY    61  56  82 N7        30.03R
HOUGHTON LAKE  CLOUDY    61  57  87 N14G23    30.02R
6HR MIN TEMP:  61; 6HR MAX TEMP:  80; 6HR PCP:  0.42;

MANISTEE       PTCLDY    63  54  72 N9G16     30.07S
OSCODA         CLOUDY    69  60  74 NW9G22    29.93S
PELLSTON       PTCLDY    60  56  86 NW16      30.03R
6HR MIN TEMP:  60; 6HR MAX TEMP:  74;

TRAVERSE CITY  CLOUDY    63  55  75 N9G18     30.04R
6HR MIN TEMP:  63; 6HR MAX TEMP:  81; 6HR PCP:  0.01;

$$
MIZ007>008-015-230700-
EASTERN UPPER MICHIGAN

CITY           SKY/WX    TMP DP  RH WIND       PRES   REMARKS
KINROSS        MOCLDY    55  55 100 NW16      30.00R
6HR MIN TEMP:  54; 6HR MAX TEMP:  68;

MACKINAC ISLAN CLOUDY    58  56  91 N10G16    30.02R
6HR MIN TEMP:  57; 6HR MAX TEMP:  67;

NEWBERRY       MOCLDY    55  53  90 NW13      30.04R
S. S. MARIE    PTCLDY    56  53  90 N8G17     29.99R
6HR MIN TEMP:  51; 6HR MAX TEMP:  61; 6HR PCP: TRACE;

$$
MIZ004>006-011>014-085-230700-
CENTRAL UPPER MICHIGAN

CITY           SKY/WX    TMP DP  RH WIND       PRES   REMARKS
MANISTIQUE     CLEAR     55  53  91 N8        30.06R
6HR MIN TEMP:  55; 6HR MAX TEMP:  67;

ESCANABA       CLEAR     59  52  77 NW5       30.09R
6HR MIN TEMP:  59; 6HR MAX TEMP:  73;

MENOMINEE      CLEAR     61  54  77 N5        30.09R
6HR MIN TEMP:  61; 6HR MAX TEMP:  79;

SAWYER-GWINN   PTCLDY    58  53  84 N12G18    30.11R
6HR MIN TEMP:  57; 6HR MAX TEMP:  65;

$$
MIZ001>003-009>011-084-230700-
WESTERN UPPER MICHIGAN

CITY           SKY/WX    TMP DP  RH WIND       PRES   REMARKS
IRON MOUNTAIN  CLEAR     57  54  89 NW6       30.11R
6HR MIN TEMP:  57; 6HR MAX TEMP:  67;

HOUGHTON       CLEAR     58  52  80 N12       30.14R
6HR MIN TEMP:  53; 6HR MAX TEMP:  63;

COPPER HARBOR    N/A     53  50  89 NE9       30.13R
6HR MIN TEMP:  53; 6HR MAX TEMP:  60;

$$

ABBREVIATIONS USED IN REMARKS
   TC - TEMPERATURE IN CELSIUS
  WCI - WIND CHILL INDEX
   HX - HEAT INDEX
  VSB - VISIBILITY



USA.gov is the U.S. government's official web portal to all federal, state and local government web resources and services.